Tracking 25612 objects as of 20-May-2022
HD Live streaming from Space Station
objects crossing your sky now

ONEWEB-0316

Track ONEWEB-0316 now!
10-day predictions
ONEWEB-0316 is classified as:


NORAD ID: 49102
Int'l Code: 2021-075AD
Perigee: 799.3 km
Apogee: 827.2 km
Inclination: 87.7 °
Period: 101.0 minutes
Semi major axis: 7184 km
RCS: Unknown
Launch date: August 21, 2021
Source: United Kingdom (UK)
Launch site: TYURATAM MISSILE AND SPACE COMPLEX (TTMTR)
aabbcc
Your satellite tracking list
Your tracking list is empty




NASA's NSSDC Master Catalog

Two Line Element Set (TLE):
1 49102U 21075AD  22140.58334491 -.01098156  00000-0 -49064+0 0  9991
2 49102  87.7207 272.4348 0019419  44.9945 263.1237 14.25718418  1307
Source of the keplerian elements: AFSPC